Overview Statistics Trail Chart Weather Telemetry Raw packets
 

This is the latest recevied weather packets stored in our database for station/object IW1RCO-13. If no packets are shown the sender has not sent any weather packets the latest 10 day(s).

<< 34 35 36 37 38 39 40 >>
Time Temp. Humidity Pressure Rain* Wind** Luminosity Snow
1788399570 20° C 80% 1018.4 hPa - - - -
1788399267 19.44° C 83% 1018.9 hPa - - - -
1788398970 18.89° C 85% 1019.1 hPa - - - -
1788398666 18.89° C 84% 1019.5 hPa - - - -
1788398369 18.89° C 85% 1019.5 hPa - - - -
1788397769 18.89° C 84% 1019.2 hPa - - - -
1788397472 18.89° C 85% 1019.5 hPa - - - -
1788397169 18.89° C 84% 1019.5 hPa - - - -
1788396872 18.89° C 84% 1018.8 hPa - - - -
1788396569 18.89° C 83% 1019.5 hPa - - - -
1788396272 18.89° C 84% 1018.8 hPa - - - -
1788395968 18.89° C 84% 1019.5 hPa - - - -
1788395672 18.33° C 84% 1018.5 hPa - - - -
1788395368 18.33° C 85% 1018.7 hPa - - - -
1788395071 18.33° C 86% 1019.5 hPa - - - -
1788394768 18.33° C 84% 1019.5 hPa - - - -
1788394471 18.33° C 86% 1018.9 hPa - - - -
1788394168 18.33° C 85% 1019.2 hPa - - - -
1788393871 18.33° C 86% 1019.6 hPa - - - -
1788393567 18.33° C 87% 1019.2 hPa - - - -
1788393271 18.33° C 87% 1019.5 hPa - - - -
1788392967 18.33° C 87% 1019.5 hPa - - - -
1788392670 18.33° C 87% 1019.6 hPa - - - -
1788392367 18.33° C 87% 1018.8 hPa - - - -
1788392070 17.78° C 86% 1019.2 hPa - - - -

* Rain since midnight (hover to see other rain measurements)
** Current wind speed in m/s (hover to see current wind gust speed)